Christmas Island, Christmas Island

3:55 PM +07 on July 23, 2017 (GMT +0700)
Christmas Island

Weather History for 96995 - November, 2012

Change the Weather History Date:

Friday, November 30, 2012

  Actual Average Record
Temperature  
Mean Temperature 79 °F -  
Max Temperature 81 °F 78 °F - ()
Min Temperature 77 °F 70 °F - ()
Cooling Degree Days 14    
Growing Degree Days 29 (Base 50)    
Moisture  
Dew Point 76 °F    
Average Humidity 91    
Maximum Humidity 100    
Minimum Humidity 75    
Precipitation  
Precipitation 0.35 in - - ()
Sea Level Pressure  
Sea Level Pressure 29.84 in    
Wind  
Wind Speed 11 mph ()    
Max Wind Speed 16 mph    
Max Gust Speed -    
T = Trace of Precipitation, MM = Missing Value Source: Averaged Metar Reports

Daily Weather History Graph

Daily Weather History Graph

Search for Another Location

Airport or City:

Trip Planner

Search our weather history database for the weather conditions in past years. The results will help you decide how hot, cold, wet, or windy it might be!

Date:

Astronomy

Nov. 30, 2012 Rise Set
Actual Time 5:25 AM +07 6:06 PM +07
Civil Twilight 5:02 AM +07 6:29 PM +07
Nautical Twilight 4:35 AM +07 6:56 PM +07
Astronomical Twilight 4:08 AM +07 7:23 PM +07
Moon 7:31 PM +07 (11/30) 6:33 AM +07 (11/30)
Length of Visible Light 13h 26m
Length of Day
12h 41m
Full, 98% of the Moon is Illuminated
Nov 30
Full
Dec 6
Last Quarter
Dec 13
New
Dec 20
First Quarter
Dec 28
Full

Hourly Weather History & Observations

Time (+07) Temp. Heat Index Dew Point Humidity Pressure Visibility Wind Dir Wind Speed Gust Speed Precip Events Conditions
12:00 AM 77 °F - 76 °F 96% 29.83 in - ESE 10.4 mph - -  
12:00 AM 77.0 °F - 77.0 °F 100% 29.86 in - ESE 10.4 mph - N/A   Unknown
1:00 AM 77 °F - 76 °F 94% 29.83 in - ESE 11.5 mph - -  
1:00 AM 77.0 °F - 75.2 °F 94% 29.86 in - ESE 11.5 mph - N/A   Unknown
2:00 AM 77.0 °F - 75.2 °F 94% 29.86 in - ESE 10.4 mph - N/A   Unknown
3:00 AM 77 °F - 76 °F 96% 29.81 in - ESE 10.4 mph - -  
3:00 AM 77.0 °F - 77.0 °F 100% 29.83 in - ESE 10.4 mph - N/A   Unknown
4:00 AM 77 °F - 76 °F 95% 29.81 in - SE 10.4 mph - -  
4:00 AM 77.0 °F - 75.2 °F 94% 29.83 in - SE 10.4 mph - N/A   Unknown
5:00 AM 77.0 °F - 75.2 °F 94% 29.83 in - SE 11.5 mph - N/A   Unknown
6:00 AM 77 °F - 76 °F 94% 29.82 in - SE 11.5 mph - -  
6:00 AM 77.0 °F - 75.2 °F 94% 29.86 in - SE 11.5 mph - N/A   Unknown
7:00 AM 78 °F - 76 °F 91% 29.83 in - SE 12.7 mph - -  
7:00 AM 78.8 °F - 75.2 °F 89% 29.86 in - SE 12.7 mph - N/A   Unknown
8:00 AM 78.8 °F - 77.0 °F 94% 29.89 in - ESE 13.8 mph - N/A   Unknown
9:00 AM 79 °F - 76 °F 87% 29.86 in - ESE 15.0 mph - -  
9:00 AM 78.8 °F - 75.2 °F 89% 29.89 in - ESE 15.0 mph - N/A   Unknown
10:00 AM 81 °F - 76 °F 80% 29.86 in - ESE 15.0 mph - -  
10:00 AM 80.6 °F 86.2 °F 75.2 °F 84% 29.89 in - ESE 15.0 mph - N/A   Unknown
11:00 AM 80.6 °F 86.2 °F 75.2 °F 84% 0.00 in - ESE 15.0 mph - N/A   Unknown
12:00 PM 81 °F - 76 °F 80% 29.84 in - ESE 16.1 mph - -  
12:00 PM 80.6 °F 86.2 °F 75.2 °F 84% 29.86 in - ESE 16.1 mph - N/A   Unknown
1:00 PM 80 °F - 73 °F 75% 29.82 in - SE 12.7 mph - -  
1:00 PM 80.6 °F 85.4 °F 73.4 °F 79% 29.86 in - SE 12.7 mph - N/A   Unknown
2:00 PM 78.8 °F - 77.0 °F 94% 29.83 in - ESE 15.0 mph - N/A   Unknown
3:00 PM 78 °F - 75 °F 89% 29.80 in - SE 13.8 mph - -  
4:00 PM 78 °F - 76 °F 91% 29.79 in - SE 9.2 mph - -  
6:00 PM 77 °F - 76 °F 94% 29.81 in - ESE 12.7 mph - -  
7:00 PM 77 °F - 76 °F 96% 29.82 in - ESE 10.4 mph - -  
9:00 PM 77 °F - 75 °F 92% 29.87 in - ESE 12.7 mph - -